Lapse_Rate
6.4 7.1 7.4 7.4 7.4 7.9 7.6 8.4 7.9 7.9 7.8 7.8 7.8 7.4 7.9 7.7 7.6 7.4 5.2 5.9 5.9 5.8 6.7 8.2 8.3 8.4 8.7 8.5 8.5 8.3 8.4 8.6 8.6 8.7 8.9 9.0 8.7 8.9 9.3 9.6 9.2 9.2 8.6
7.8 7.8 8.0 8.1 8.3 8.9 9.2 8.8 8.1 7.9 8.1 7.8 6.8 7.4 7.0 7.0 7.1 7.8 6.2 6.3 6.5 6.2 6.3 7.9 8.9 8.3 8.6 8.8 8.6 8.8 8.6 8.5 8.6 9.0 9.7 9.2 9.1 9.2 9.5 9.6 9.2 9.6 9.7
8.5 8.3 7.7 7.6 8.1 9.1 9.0 9.0 8.6 8.8 7.8 8.4 7.2 7.4 6.8 7.0 7.5 7.5 8.2 6.4 6.0 6.6 6.9 7.0 8.0 8.2 8.4 8.8 8.5 8.7 8.8 8.9 9.1 9.7 9.7 9.7 9.4 9.6 9.5 9.6 9.4 9.7 9.6
8.7 8.2 7.6 7.7 8.8 8.6 8.5 7.8 7.2 6.9 6.7 6.7 6.0 6.5 7.6 8.1 8.0 7.9 8.3 8.1 8.0 6.9 6.4 7.0 7.0 7.3 7.6 8.3 8.8 9.5 9.6 9.4 9.6 9.7 9.7 9.7 9.7 9.7 9.6 9.3 9.6 9.6 9.6
9.0 8.3 8.1 8.1 8.3 7.9 7.6 7.5 6.6 7.0 6.6 6.9 6.6 6.4 6.7 6.9 7.7 9.0 8.2 8.2 7.7 8.2 7.7 7.1 7.2 7.1 7.3 7.6 7.9 8.3 8.7 8.8 9.1 9.6 9.7 9.7 9.7 9.7 9.7 9.6 9.6 9.6 9.6
8.1 7.7 7.6 8.2 6.9 6.9 6.8 7.3 7.1 7.3 6.7 6.1 8.5 6.7 5.5 5.9 7.2 7.1 7.5 8.5 9.1 8.4 8.1 8.4 7.7 7.6 7.4 7.6 7.9 8.3 8.6 8.8 9.5 9.7 9.7 9.7 9.7 9.7 9.7 9.7 9.7 9.6 9.6
7.5 7.2 7.1 7.6 5.9 6.3 6.9 7.0 6.8 6.8 6.4 6.0 5.4 5.1 5.2 5.1 5.4 5.3 7.2 7.6 8.5 8.5 8.6 8.1 8.4 8.8 7.4 7.7 8.4 8.6 8.5 8.8 8.6 8.5 8.8 9.5 9.7 9.6 9.6 9.6 9.6 9.5 9.5
7.7 7.0 6.7 6.7 5.3 6.2 6.8 6.4 6.3 5.8 5.8 5.3 5.1 5.9 5.6 5.5 5.1 5.1 5.0 5.6 6.8 8.3 8.7 8.9 8.9 9.1 8.5 8.4 8.1 8.0 8.4 7.8 7.7 7.9 8.1 8.3 8.7 9.5 9.5 9.4 9.5 9.5 9.2
8.2 7.9 7.5 7.6 6.4 6.0 6.1 5.4 5.6 6.1 5.8 5.5 5.5 4.9 5.3 5.2 4.8 4.3 5.0 5.6 5.9 5.7 7.7 8.5 8.9 9.2 9.3 9.2 8.0 7.6 6.4 6.7 7.3 7.4 7.7 8.2 8.5 9.4 9.4 9.4 9.5 9.5 9.5
7.3 8.2 8.4 8.0 7.2 6.4 6.2 5.5 5.8 5.8 6.2 5.4 4.7 5.8 5.7 5.9 5.7 4.7 5.7 5.4 5.7 6.3 5.4 7.0 8.4 8.9 9.0 9.1 9.3 5.9 5.4 5.5 6.0 6.5 7.1 7.8 8.3 9.3 9.4 9.4 9.5 9.5 9.5
7.3 7.6 7.8 7.4 6.0 6.2 6.1 5.7 6.1 6.1 5.9 4.8 5.7 5.3 5.7 6.2 5.7 5.4 5.1 5.3 5.8 5.7 5.6 6.3 7.7 8.3 9.0 8.9 6.9 5.2 4.8 5.0 5.6 6.0 6.6 7.4 7.6 7.9 8.4 9.3 9.5 9.6 9.6
5.6 6.4 7.2 7.0 6.7 5.9 5.7 6.3 6.3 6.1 4.2 4.1 4.4 4.9 5.5 6.9 7.1 6.5 6.1 5.6 5.7 6.0 6.8 6.7 6.0 7.3 8.2 9.1 8.4 5.3 5.1 5.2 5.4 6.0 6.6 6.9 6.9 7.0 7.2 7.9 8.8 9.5 9.5
4.7 4.5 5.2 5.5 5.1 6.1 6.0 6.5 5.0 4.0 3.7 3.5 4.1 4.6 5.8 7.1 7.0 7.1 7.8 6.2 6.1 6.6 6.0 5.9 6.8 7.3 8.0 8.8 7.2 5.1 5.1 5.4 5.8 6.1 6.3 6.4 6.9 7.6 7.6 7.3 7.5 8.3 9.4
4.4 5.4 4.5 5.4 4.4 4.4 4.9 4.3 3.3 3.0 3.1 2.7 4.3 5.0 5.2 4.6 5.8 6.9 7.1 6.7 5.6 6.1 6.2 6.7 6.7 7.8 7.8 8.3 6.7 6.8 6.2 6.4 6.6 6.5 6.6 6.7 7.3 8.2 7.8 7.2 7.2 7.4 8.4
3.9 4.6 4.4 3.4 3.7 3.3 3.7 3.7 2.6 2.4 2.9 4.4 5.1 5.3 4.9 5.6 6.0 7.3 7.1 7.1 6.2 5.0 6.1 6.8 6.3 7.9 8.1 8.1 7.0 6.5 7.0 8.0 7.2 6.5 6.4 7.3 8.3 8.5 8.1 8.1 8.0 7.8 8.1
3.6 3.6 3.2 3.2 3.2 3.5 4.1 2.8 2.1 2.3 4.5 5.4 5.1 5.4 6.1 6.5 6.0 7.1 6.9 6.9 6.5 5.7 5.3 6.3 6.5 6.3 8.1 8.5 8.9 7.8 7.8 8.0 8.1 8.4 8.1 8.3 8.3 8.1 8.0 8.2 8.2 8.1 7.7
4.1 3.3 3.4 3.5 3.6 3.7 3.3 2.8 3.5 4.1 5.6 4.7 5.1 5.4 5.6 6.4 6.5 6.9 6.8 6.6 6.5 6.5 6.2 5.9 6.3 6.6 6.5 6.2 7.9 7.7 8.2 8.0 8.1 8.9 8.9 8.4 8.1 7.5 7.5 7.8 7.9 8.0 7.9
3.6 3.9 4.0 4.0 3.5 2.7 3.5 3.7 4.3 5.7 5.4 4.4 4.2 4.9 6.0 7.4 6.5 7.6 6.8 6.7 6.7 6.6 6.1 5.6 5.6 5.6 5.8 5.8 6.4 5.7 7.7 8.6 8.4 8.6 8.9 8.8 8.0 7.2 7.4 7.3 7.6 7.7 7.7
3.9 3.9 3.4 3.2 3.5 4.0 4.3 4.6 5.6 5.2 4.6 4.3 5.1 5.8 6.6 6.7 6.8 6.8 7.5 7.1 7.4 8.5 6.6 5.1 4.7 5.1 5.0 5.4 5.4 5.8 5.7 6.7 8.2 8.8 9.1 9.1 8.5 8.0 7.8 7.7 7.6 7.6 7.7
2.4 2.6 3.2 3.2 3.0 3.3 3.5 3.9 3.9 4.2 4.3 4.9 6.0 6.4 6.4 6.6 7.0 7.2 7.3 6.7 7.5 7.0 7.0 6.2 6.3 4.8 4.7 5.4 5.3 5.2 4.7 4.9 5.4 8.8 8.8 8.7 9.0 9.3 8.9 8.2 8.0 8.2 8.0
3.1 2.5 2.3 2.5 2.8 3.7 3.9 4.0 4.9 4.8 5.4 6.0 6.7 6.8 6.6 6.7 6.4 6.7 7.9 6.4 5.9 6.0 5.6 5.4 5.0 4.8 4.7 5.0 5.3 5.0 5.4 5.5 5.3 5.6 5.8 6.3 7.7 7.8 8.4 9.0 9.1 9.3 8.9
3.6 3.4 3.3 3.0 3.1 5.0 3.3 4.3 5.5 6.6 6.9 6.5 5.7 6.4 6.5 6.4 6.8 5.3 5.1 5.3 6.1 6.3 6.0 5.8 6.1 6.5 5.4 5.2 5.3 5.4 5.6 5.5 5.2 6.5 6.1 5.3 7.4 6.1 7.6 9.0 9.2 8.7 8.3
3.7 3.2 3.5 4.0 5.1 6.4 3.8 3.9 3.9 5.5 5.8 5.8 5.9 5.9 7.0 9.4 7.1 7.2 6.6 5.6 4.2 4.5 4.7 6.0 6.0 6.1 6.2 6.0 4.8 5.6 6.4 5.9 4.9 5.2 5.7 5.3 5.6 6.4 7.8 9.4 9.3 8.9 8.6
4.2 4.5 5.1 6.7 7.2 5.4 3.9 4.4 3.9 5.2 5.0 5.1 6.2 7.4 7.1 7.1 7.1 6.6 6.2 5.3 6.1 6.3 6.2 5.7 4.8 5.4 5.6 5.6 5.1 5.9 6.5 5.9 5.9 5.4 6.0 6.2 6.1 5.7 6.4 8.4 9.2 9.2 9.1
7.4 6.7 6.5 6.3 6.4 6.8 4.4 4.2 3.8 5.8 6.3 6.0 7.1 6.5 6.8 6.6 6.3 5.8 5.8 5.8 6.6 7.1 8.5 8.5 7.6 6.9 7.0 7.3 6.6 4.6 4.1 5.3 4.7 5.6 6.0 6.4 6.6 5.8 6.0 5.7 8.0 9.4 8.9
6.9 6.9 7.3 7.4 6.8 7.2 4.3 4.0 4.5 4.5 4.5 2.9 4.1 5.3 5.4 5.8 5.6 5.6 4.8 5.2 5.5 5.4 5.5 5.6 6.7 5.4 4.7 4.6 5.0 5.2 4.6 5.2 5.3 5.6 5.8 7.0 6.5 5.4 4.6 6.0 5.9 7.9 8.4
Wind_Speed
6 14 12 14 15 15 15 9 12 7 7 6 6 7 5 7 6 10 11 10 6 3 1 6 9 10 9 7 7 6 5 5 4 5 6 5 4 6 8 8 10 12 14
8 9 8 9 10 11 9 9 10 9 7 9 6 4 5 7 7 6 8 9 7 5 3 5 9 11 10 8 6 5 3 4 3 3 7 2 2 4 7 7 7 9 12
10 4 5 3 7 9 10 7 8 8 6 6 7 5 6 5 5 3 6 11 9 6 7 6 3 8 8 8 7 5 4 4 3 5 7 7 5 8 7 8 6 8 10
11 8 6 4 9 8 7 6 3 3 4 4 3 3 4 4 7 2 5 4 6 9 8 12 11 7 5 2 5 5 5 4 7 7 8 8 10 10 11 11 10 9 11
12 8 5 7 11 8 6 5 3 3 3 2 4 3 3 2 7 7 4 3 1 4 11 8 9 9 8 7 5 3 3 6 7 9 10 10 10 10 11 12 14 15 16
10 10 8 10 12 5 4 3 3 2 1 3 3 3 4 5 5 4 5 7 6 6 1 7 9 10 13 11 9 8 7 9 8 7 8 9 11 11 12 14 16 17 19
17 12 10 11 10 4 5 5 3 4 2 2 2 3 4 6 5 3 7 7 8 11 8 1 5 8 13 9 11 5 5 5 3 5 8 10 11 12 13 15 17 18 18
16 13 11 6 9 4 6 6 5 3 3 4 2 1 2 1 3 5 4 5 6 4 4 9 11 4 2 4 11 7 4 2 0 2 6 9 12 14 16 18 20 21 22
14 14 15 8 7 5 5 6 5 5 4 2 4 2 1 3 2 3 5 3 5 4 7 6 4 8 8 7 8 12 10 6 3 2 4 8 11 14 18 20 22 23 24
13 15 15 11 7 6 4 5 4 4 3 3 2 2 2 1 0 4 0 4 4 5 5 9 10 5 3 7 9 18 14 10 6 2 2 8 13 16 18 20 22 24 26
11 11 8 9 5 5 3 6 6 6 3 3 2 2 3 3 4 4 4 4 3 4 5 9 13 9 4 7 10 18 17 13 9 4 4 9 13 16 19 21 23 24 25
6 9 9 7 7 6 5 5 5 6 5 4 2 1 2 1 1 2 2 3 3 3 2 5 9 11 11 9 7 19 17 12 8 7 8 9 13 16 20 22 23 24 25
3 6 7 6 4 4 2 3 5 6 5 4 2 4 2 2 2 2 2 3 3 4 3 2 4 11 14 14 11 18 16 14 13 12 9 10 12 18 22 22 22 23 24
10 5 5 6 6 9 7 9 5 5 5 3 6 4 2 3 3 4 2 2 4 3 3 4 3 6 9 9 17 18 20 18 15 13 12 13 15 19 19 20 22 24 25
6 6 5 7 7 9 10 8 5 5 4 5 5 3 3 1 3 3 4 3 2 2 3 4 3 6 4 4 15 18 15 12 13 15 15 16 17 18 18 20 23 26 27
6 7 7 7 6 7 8 8 6 6 6 2 3 5 5 4 4 4 3 3 3 4 4 4 4 5 10 12 10 14 11 10 12 15 17 18 19 17 18 20 23 25 26
8 9 9 8 8 8 7 7 6 7 6 6 5 5 5 8 6 4 4 3 4 4 6 4 4 4 3 4 6 13 14 12 10 13 14 13 16 20 21 19 22 24 24
7 8 8 8 6 9 8 7 6 6 7 6 5 2 8 6 7 6 4 6 5 5 5 8 5 4 6 6 6 5 9 12 12 13 13 16 20 24 21 22 25 26 27
5 5 7 7 8 8 8 5 3 6 8 6 5 5 5 8 9 7 8 5 5 7 7 5 5 4 5 4 6 5 4 9 13 14 19 22 22 22 23 26 27 29 29
6 7 6 5 7 8 7 8 9 8 5 5 6 4 7 9 11 10 8 8 9 9 9 6 7 5 5 5 4 4 4 4 5 7 8 12 16 23 23 23 26 29 31
6 8 8 8 9 9 8 8 7 6 5 7 4 5 8 13 16 12 9 8 7 7 6 6 5 3 4 3 4 3 3 2 3 3 2 4 11 7 11 18 21 22 14
8 7 7 6 6 4 9 7 5 4 2 1 4 7 10 13 16 17 16 17 14 12 12 9 10 11 6 4 3 3 3 2 3 4 2 3 5 4 13 17 20 10 10
7 7 6 6 6 4 11 7 4 1 2 4 7 9 10 8 9 8 9 10 13 17 18 14 12 12 12 9 4 3 4 4 4 3 2 4 2 6 14 13 13 14 19
7 6 5 5 4 5 7 7 5 4 5 7 7 7 7 8 7 8 8 8 9 8 8 8 10 13 13 9 6 5 4 2 2 2 2 6 4 5 5 12 13 14 21
5 6 6 5 4 4 10 9 6 4 4 5 6 7 8 10 13 18 12 12 14 13 18 23 23 23 24 19 12 2 3 2 3 3 3 4 6 4 2 2 13 13 14
5 5 6 5 5 7 12 12 5 3 5 4 5 8 12 12 16 16 10 11 13 12 11 14 13 7 9 9 9 7 4 6 5 4 6 4 4 0 3 3 2 12 13
Wind_Direction
150 164 185 169 185 187 185 184 114 142 112 109 89 70 76 109 3 85 122 114 115 98 79 205 181 170 161 153 144 130 103 109 92 46 18 43 39 28 20 23 21 18 12
201 192 165 182 168 146 180 148 168 141 181 131 108 73 60 46 65 14 135 128 128 123 105 216 211 181 175 169 161 158 129 118 99 19 2 339 315 325 341 356 0 5 0
183 208 153 187 150 178 167 168 147 172 129 190 129 149 157 142 110 44 324 156 147 141 131 95 162 183 183 179 177 183 185 208 232 294 332 332 304 312 321 336 317 337 341
195 228 167 175 180 147 159 136 177 168 196 186 138 175 144 142 131 202 247 18 127 148 118 118 108 109 106 169 205 217 239 239 271 314 317 321 323 333 336 339 335 328 322
206 188 186 196 155 160 192 181 198 177 179 167 169 173 136 273 171 219 124 145 99 51 140 151 154 160 165 164 162 202 263 283 287 298 308 314 321 325 323 321 319 316 312
198 202 220 191 168 194 184 174 170 189 161 195 261 155 180 191 219 198 187 189 191 136 288 152 187 204 199 196 196 213 243 266 280 300 312 314 313 314 316 316 315 311 307
185 190 221 171 174 212 184 174 157 157 228 96 1 274 237 192 193 212 201 197 213 166 204 101 282 293 201 205 225 220 240 251 271 303 314 315 313 310 306 305 304 307 309
180 190 224 181 177 217 175 164 158 166 223 164 190 283 286 286 210 209 224 193 197 217 193 209 219 243 260 209 164 167 185 173 193 322 320 316 314 310 309 309 308 307 304
207 200 205 207 174 202 176 161 173 196 195 166 185 146 276 238 20 181 209 216 172 178 197 247 264 234 221 241 181 162 152 143 126 42 325 312 307 306 304 303 303 302 301
217 230 200 198 184 185 176 165 177 203 212 195 105 142 241 321 305 344 92 227 198 174 201 222 223 201 248 231 231 153 144 135 126 133 322 307 303 303 306 306 305 303 301
201 237 212 191 201 165 193 178 186 185 193 128 138 152 228 199 216 191 262 307 230 208 221 203 204 192 199 256 136 145 150 158 165 182 266 289 298 303 306 306 304 301 298
182 190 231 191 177 179 209 187 165 145 120 105 82 264 228 239 274 260 270 266 289 291 245 197 173 187 209 225 181 165 162 168 188 217 253 280 298 306 309 306 302 300 300
309 234 194 185 178 168 179 149 106 106 119 112 199 228 271 306 55 20 320 281 296 280 288 290 236 209 202 203 159 161 172 188 210 221 239 262 283 299 306 304 303 302 300
207 205 190 157 157 145 133 128 120 109 111 150 223 241 109 62 28 281 261 275 277 280 301 295 310 296 217 209 162 174 189 206 221 218 220 243 270 295 298 301 303 300 298
194 179 163 147 157 146 147 135 122 116 138 213 210 103 95 51 260 271 261 239 225 260 260 289 292 296 304 213 196 194 206 214 200 207 223 250 278 282 285 291 296 297 295
193 156 148 158 156 150 144 134 133 154 186 171 90 64 8 308 284 260 258 245 227 225 259 230 260 257 268 280 267 199 201 225 242 253 266 271 264 263 269 278 289 295 292
164 153 162 170 170 158 140 140 153 157 156 129 83 50 336 277 270 273 270 258 249 234 257 258 237 257 266 238 247 206 215 218 237 253 264 269 254 241 249 262 277 283 285
150 156 170 175 165 146 148 151 159 171 143 131 110 191 257 272 273 265 256 243 248 254 248 262 238 248 244 237 225 224 233 232 240 255 258 266 252 240 240 249 260 269 273
148 138 134 142 154 138 140 136 137 139 131 150 186 228 265 282 280 275 265 255 261 265 255 236 249 234 236 227 247 235 214 233 239 243 259 268 265 253 253 250 252 258 262
108 115 129 134 131 135 133 159 155 164 172 183 214 226 264 275 273 270 272 264 258 255 254 252 257 247 223 242 218 208 254 222 237 250 285 286 288 282 266 256 257 263 263
123 121 123 129 141 152 161 156 164 167 194 221 215 245 267 275 268 261 267 264 269 273 274 284 274 260 244 249 225 228 216 226 256 201 239 270 269 277 298 294 281 276 282
131 125 126 123 116 135 136 151 167 217 180 331 271 269 270 272 264 252 252 253 252 258 260 258 264 265 267 244 253 235 203 209 269 229 220 267 290 286 284 273 276 291 278
108 108 115 128 151 187 161 171 151 68 277 267 268 270 273 288 296 297 288 276 264 258 253 255 258 257 261 256 248 256 254 225 227 240 83 280 265 269 260 275 291 319 313
120 134 149 165 141 111 140 165 177 232 243 242 249 277 296 299 297 308 310 294 287 285 269 249 242 254 258 260 233 230 223 244 286 273 184 266 260 255 264 270 285 300 299
136 96 99 111 127 183 174 185 184 241 307 323 320 317 327 332 337 340 330 322 309 295 290 282 274 250 243 237 206 153 168 139 274 258 235 248 267 264 263 272 293 291 319
130 153 167 181 126 71 71 72 39 33 13 4 336 322 317 312 319 338 336 323 307 303 307 309 302 265 190 203 185 210 188 206 219 275 234 240 263 21 312 265 268 325 316